FW8712 Weather Reports


time (UTC)temp
C
wind
direction
speed
KPH
gust
KPH
rain 1hr
cm
rain 24hr
cm
rain mn
cm
humidity
%
barometer
mb
20260504042539 10 224 9.7 19.3 0.00 0.00 0.00 59 1005.4
20260504042038 10 221 8.0 19.3 0.00 0.00 0.00 59 1005.3
20260504041542 10 215 9.7 19.3 0.00 0.00 0.00 59 1005.4
20260504041038 10 231 11.3 19.3 0.00 0.00 0.00 59 1005.4
20260504040538 10 224 4.8 20.9 0.00 0.00 0.00 59 1005.4
20260504040049 10 226 6.4 20.9 0.00 0.00 0.00 59 1005.4
20260504035540 10 226 4.8 17.7 0.00 0.00 0.00 58 1005.5
20260504035042 10 221 4.8 11.3 0.00 0.00 0.00 58 1005.4
20260504034600 10 237 1.6 14.5 0.00 0.00 0.00 60 1005.4
20260504034038 10 236 4.8 17.7 0.00 0.00 0.00 58 1005.5
20260504033539 10 248 6.4 20.9 0.00 0.00 0.00 59 1005.6
20260504033044 10 0 3.2 20.9 0.00 0.00 0.00 59 1005.6
20260504032539 10 226 6.4 24.1 0.00 0.00 0.00 59 1005.6
20260504032039 10 258 4.8 30.6 0.00 0.00 0.00 59 1005.7
20260504031544 10 226 14.5 30.6 0.00 0.00 0.00 58 1005.7
20260504031038 10 253 12.9 25.7 0.00 0.00 0.00 57 1005.7
20260504030540 11 283 9.7 24.1 0.00 0.00 0.00 57 1005.7
20260504030044 11 240 8.0 20.9 0.00 0.00 0.00 55 1005.7
20260504025539 11 220 8.0 24.1 0.00 0.00 0.00 54 1005.7
20260504025040 11 251 8.0 24.1 0.00 0.00 0.00 53 1005.7
20260504024544 11 264 6.4 22.5 0.00 0.00 0.00 53 1005.6
20260504024039 11 253 4.8 22.5 0.00 0.00 0.00 51 1005.7
20260504023538 11 228 6.4 22.5 0.00 0.00 0.00 51 1005.7
20260504023048 11 279 6.4 24.1 0.00 0.00 0.00 50 1005.8
20260504022539 11 251 8.0 24.1 0.00 0.00 0.00 49 1005.8
20260504022039 11 228 8.0 22.5 0.00 0.00 0.00 49 1005.8
20260504021544 11 240 8.0 22.5 0.00 0.00 0.00 48 1005.8
20260504021039 11 227 9.7 22.5 0.00 0.00 0.00 47 1005.8
20260504020540 11 292 1.6 6.4 0.00 0.00 0.00 47 1005.9
20260504020045 11 239 1.6 8.0 0.00 0.00 0.00 47 1005.9
20260504015540 11 0 0.0 8.0 0.00 0.00 0.00 45 1005.8
20260504015039 11 263 1.6 9.7 0.00 0.00 0.00 45 1005.7
20260504014600 11 257 3.2 9.7 0.00 0.00 0.00 45 1005.7
20260504014038 11 0 0.0 6.4 0.00 0.00 0.00 46 1005.7
20260504013539 11 263 1.6 9.7 0.00 0.00 0.00 44 1005.7
20260504013050 12 266 1.6 11.3 0.00 0.00 0.00 44 1005.7
20260504012539 12 261 4.8 12.9 0.00 0.00 0.00 44 1005.8
20260504012039 12 227 6.4 16.1 0.00 0.00 0.00 45 1005.7
20260504011554 12 261 4.8 19.3 0.00 0.00 0.00 43 1005.8
20260504011035 12 262 6.4 22.5 0.00 0.00 0.00 43 1005.7
20260504010538 12 213 6.4 22.5 0.00 0.00 0.00 44 1005.7
20260504010056 12 250 8.0 22.5 0.00 0.00 0.00 43 1005.6
20260504005534 12 247 6.4 19.3 0.00 0.00 0.00 42 1005.6
20260504005035 12 265 6.4 29.0 0.00 0.00 0.00 41 1005.5
20260504004548 12 243 12.9 29.0 0.00 0.00 0.00 42 1005.4
20260504004036 12 220 8.0 20.9 0.00 0.00 0.00 39 1005.3
20260504003536 12 0 4.8 16.1 0.00 0.00 0.00 40 1005.3
20260504003050 12 253 4.8 16.1 0.00 0.00 0.00 38 1005.2
20260504002536 12 239 6.4 14.5 0.00 0.00 0.00 38 1005.2
20260504002036 12 259 6.4 19.3 0.00 0.00 0.00 38 1005.2
20260504001544 12 259 4.8 25.7 0.00 0.00 0.00 38 1005.1
20260504001037 12 233 9.7 25.7 0.00 0.00 0.00 38 1005.1
20260504000535 13 230 8.0 22.5 0.00 0.00 0.00 36 1005.0
20260504000046 13 229 6.4 20.9 0.00 0.00 0.00 36 1005.0
20260503235538 13 260 8.0 19.3 0.00 0.00 0.00 35 1005.0
20260503235034 13 254 4.8 19.3 0.00 0.00 0.00 35 1004.9
20260503234551 13 267 8.0 19.3 0.00 0.00 0.00 34 1004.9
20260503234040 13 254 4.8 14.5 0.00 0.00 0.00 35 1004.9
20260503233537 13 264 1.6 9.7 0.00 0.00 0.00 33 1005.0
20260503233046 13 0 3.2 11.3 0.00 0.00 0.00 34 1004.8
20260503232537 13 263 1.6 12.9 0.00 0.00 0.00 33 1004.5
20260503232034 13 245 4.8 24.1 0.00 0.00 0.00 31 1004.6
20260503231551 13 267 8.0 24.1 0.00 0.00 0.00 30 1004.6
20260503231034 13 261 8.0 22.5 0.00 0.00 0.00 30 1004.5
20260503230537 13 282 6.4 16.1 0.00 0.00 0.00 31 1004.6
20260503230044 13 269 8.0 16.1 0.00 0.00 0.00 30 1004.6
20260503225536 13 240 4.8 22.5 0.00 0.00 0.00 31 1004.7
20260503225038 13 286 9.7 22.5 0.00 0.00 0.00 29 1004.6
20260503224548 13 265 6.4 25.7 0.00 0.00 0.00 30 1004.6
20260503224038 14 282 12.9 25.7 0.00 0.00 0.00 30 1004.6
20260503223539 14 311 8.0 24.1 0.00 0.00 0.00 36 1004.7
20260503223048 14 291 11.3 24.1 0.00 0.00 0.00 29 1004.7
20260503222538 14 222 11.3 20.9 0.00 0.00 0.00 27 1004.7
20260503222034 14 271 6.4 20.9 0.00 0.00 0.00 27 1005.0
20260503221548 14 278 8.0 20.9 0.00 0.00 0.00 29 1005.0
20260503221038 14 248 6.4 37.0 0.00 0.00 0.00 28 1004.9
20260503220538 14 284 8.0 37.0 0.00 0.00 0.00 28 1004.7
20260503220051 15 261 6.4 19.3 0.00 0.00 0.00 27 1004.8
20260503215538 14 280 11.3 22.5 0.00 0.00 0.00 28 1004.7
20260503215039 14 268 11.3 22.5 0.00 0.00 0.00 27 1004.8
20260503214549 14 328 12.9 25.7 0.00 0.00 0.00 27 1004.9
20260503214036 14 277 11.3 25.7 0.00 0.00 0.00 28 1004.8
20260503213538 14 253 11.3 22.5 0.00 0.00 0.00 30 1004.9
20260503213055 14 319 8.0 19.3 0.00 0.00 0.00 30 1004.9
20260503212535 14 294 11.3 29.0 0.00 0.00 0.00 27 1005.0
20260503212035 14 251 14.5 29.0 0.00 0.00 0.00 30 1004.9
20260503211541 14 282 9.7 30.6 0.00 0.00 0.00 31 1005.1
20260503211034 14 265 12.9 30.6 0.00 0.00 0.00 30 1005.1
20260503210535 14 255 4.8 22.5 0.00 0.00 0.00 31 1005.1
20260503210042 13 305 4.8 22.5 0.00 0.00 0.00 30 1004.9
20260503205534 13 244 9.7 22.5 0.00 0.00 0.00 29 1005.0
20260503205035 13 263 8.0 22.5 0.00 0.00 0.00 29 1005.1
20260503204541 13 267 11.3 22.5 0.00 0.00 0.00 28 1005.0
20260503204040 13 290 14.5 25.7 0.00 0.00 0.00 28 1005.2
20260503203535 13 290 12.9 25.7 0.00 0.00 0.00 29 1005.5
20260503203052 13 287 11.3 22.5 0.00 0.00 0.00 28 1005.3
20260503202534 13 281 6.4 27.4 0.00 0.00 0.00 39 1005.4
20260503202038 13 306 9.7 29.0 0.00 0.00 0.00 27 1005.3
20260503201547 13 251 12.9 29.0 0.00 0.00 0.00 28 1005.4
20260503201035 13 267 11.3 29.0 0.00 0.00 0.00 30 1005.5
20260503200537 13 253 14.5 32.2 0.00 0.00 0.00 28 1005.4
20260503200047 13 260 11.3 32.2 0.00 0.00 0.00 30 1005.7
20260503195534 13 274 12.9 32.2 0.00 0.00 0.00 29 1005.6
20260503195037 13 267 6.4 17.7 0.00 0.00 0.00 29 1005.7
20260503194543 13 275 4.8 20.9 0.00 0.00 0.00 32 1006.0
20260503194035 13 245 6.4 27.4 0.00 0.00 0.00 30 1005.9
20260503193535 13 288 8.0 30.6 0.00 0.00 0.00 28 1006.2
20260503193049 13 260 16.1 30.6 0.00 0.00 0.00 29 1006.2
20260503192534 13 280 11.3 30.6 0.00 0.00 0.00 30 1006.2
20260503192037 13 252 9.7 30.6 0.00 0.00 0.00 28 1006.3
20260503191549 13 240 11.3 33.8 0.00 0.00 0.00 30 1006.4
20260503191034 13 252 8.0 33.8 0.00 0.00 0.00 31 1006.3
20260503190538 12 252 16.1 33.8 0.00 0.00 0.00 31 1006.5
20260503190049 13 221 17.7 33.8 0.00 0.00 0.00 30 1006.5
20260503185538 13 234 4.8 16.1 0.00 0.00 0.00 30 1006.8
20260503185038 13 280 1.6 14.5 0.00 0.00 0.00 33 1006.6
20260503184555 12 302 4.8 16.1 0.00 0.00 0.00 36 1006.6
20260503184035 12 265 3.2 24.1 0.00 0.00 0.00 31 1006.6
20260503183538 12 263 9.7 24.1 0.00 0.00 0.00 33 1006.8
20260503183055 12 284 6.4 19.3 0.00 0.00 0.00 36 1006.9
20260503182537 12 296 6.4 22.5 0.00 0.00 0.00 35 1006.9
20260503182035 11 290 11.3 22.5 0.00 0.00 0.00 34 1007.0
20260503181543 12 309 11.3 20.9 0.00 0.00 0.00 38 1007.0
20260503181035 12 340 4.8 30.6 0.00 0.00 0.00 41 1007.2
20260503180535 12 273 9.7 30.6 0.00 0.00 0.00 35 1007.2
20260503180043 12 222 6.4 24.1 0.00 0.00 0.00 34 1007.3
20260503175534 12 290 14.5 33.8 0.00 0.00 0.00 33 1007.3
20260503175034 12 216 9.7 33.8 0.00 0.00 0.00 34 1007.3
20260503174550 12 235 8.0 24.1 0.00 0.00 0.00 34 1007.5
20260503174038 11 0 4.8 19.3 0.00 0.00 0.00 37 1007.5
20260503173538 11 307 9.7 30.6 0.00 0.00 0.00 35 1007.7
20260503173053 11 276 8.0 30.6 0.00 0.00 0.00 36 1007.7
20260503172541 10 313 11.3 20.9 0.00 0.00 0.00 43 1007.6
20260503172038 10 336 12.9 20.9 0.00 0.00 0.00 40 1007.8
20260503171542 11 288 9.7 17.7 0.00 0.00 0.00 40 1007.9
20260503171038 11 294 9.7 22.5 0.00 0.00 0.00 40 1007.8
20260503170538 11 258 6.4 22.5 0.00 0.00 0.00 40 1008.0
20260503150538 7 330 4.8 12.9 0.00 0.00 0.00 53 1010.0
20260503131039 5 335 6.4 12.9 0.00 0.00 0.00 64 1011.2
20260503130538 5 322 4.8 12.9 0.00 0.00 0.00 63 1011.2
20260503110536 4 259 3.2 12.9 0.00 0.00 0.00 67 1011.1
20260503081610 5 283 4.8 9.7 0.00 0.00 0.00 65 1011.2
20260503081038 5 276 3.2 8.0 0.00 0.00 0.00 65 1011.3
20260503080538 5 280 3.2 8.0 0.00 0.00 0.00 65 1011.3
20260503080108 5 290 3.2 9.7 0.00 0.00 0.00 65 1011.3
20260503072539 5 280 3.2 9.7 0.00 0.00 0.00 64 1011.3
20260503072038 5 286 3.2 8.0 0.00 0.00 0.00 64 1011.4
20260503071544 5 297 1.6 8.0 0.00 0.00 0.00 64 1011.3
20260503071038 5 0 1.6 8.0 0.00 0.00 0.00 63 1011.3
20260503070538 5 278 1.6 8.0 0.00 0.00 0.00 64 1011.3
20260503055041 5 253 4.8 14.5 0.00 0.00 0.00 63 1011.6
20260503054554 5 280 6.4 14.5 0.00 0.00 0.00 62 1011.6
20260503054036 5 281 4.8 9.7 0.00 0.00 0.00 63 1011.5
20260503053535 5 297 3.2 9.7 0.00 0.00 0.00 62 1011.6
20260503053047 5 296 4.8 12.9 0.00 0.00 0.00 61 1011.6
20260503052536 5 294 4.8 12.9 0.00 0.00 0.00 60 1011.6
20260503052039 5 293 4.8 12.9 0.00 0.00 0.00 60 1011.7
20260503051548 6 295 3.2 14.5 0.00 0.00 0.00 60 1011.7
20260503051035 6 297 3.2 16.1 0.00 0.00 0.00 60 1011.7
20260503050539 6 271 8.0 16.1 0.00 0.00 0.00 59 1011.7
20260503050048 6 280 6.4 14.5 0.00 0.00 0.00 60 1011.7
20260503045539 6 302 4.8 16.1 0.00 0.00 0.00 60 1011.8
20260503045039 6 269 6.4 16.1 0.00 0.00 0.00 59 1011.7
20260503044550 6 263 4.8 14.5 0.00 0.00 0.00 59 1011.8
20260503044038 6 276 6.4 14.5 0.00 0.00 0.00 58 1011.8
20260503043538 6 256 6.4 14.5 0.00 0.00 0.00 58 1011.9
20260503043050 6 269 4.8 12.9 0.00 0.00 0.00 57 1011.8